Torna al catalogo

ONEWEB-0300

AttivoComunicazioniPO
NORAD 49089·PAYLOAD·🇬🇧 United Kingdom

Lanciato Aug 21, 2021 da Baikonur Cosmodrome

Loading…

Prossimi Passaggi (prossime 24 ore)

TLE

AggiornatoSource: CelesTrak SupGP

Epoca: Sep 14, 2026, 13:06 UTC

1 49089C 21075Q   26257.54631944  .00002391  00000+0  66554-2 0  2572
2 49089  87.8982 332.9208 0002274 103.6516 331.0854 13.12435656    19

Traccia ONEWEB-0300 in tempo reale con AllMySat

Download on the App Store